• In Latvia
  • List of Countries
  • For 7 days
  • Water Temperature
  • Satellite Maps
  • Weather Map
  • Weather Widgets
  • user-avatar
    Login

    Hourly Weather Recife

    Today, 14 December, Thursday

    Time Temperature Precipitation Wind Pressure Humidity
    00:00 +27°C° 0 mm 3 mps 759 mmHg 76%
    01:00 +27°C° 0 mm 3 mps 759 mmHg 77%
    02:00 +27°C° 0 mm 3 mps 759 mmHg 77%
    03:00 +27°C° 0 mm 3 mps 759 mmHg 77%
    04:00 +27°C° 0 mm 3 mps 758 mmHg 77%
    05:00 +27°C° 0 mm 3 mps 758 mmHg 76%
    06:00 +27°C° 0 mm 3 mps 759 mmHg 74%
    07:00 +27°C° 0 mm 3 mps 759 mmHg 73%
    08:00 +29°C° 0 mm 4 mps 759 mmHg 67%
    09:00 +30°C° 0 mm 4 mps 759 mmHg 60%
    10:00 +32°C° 0 mm 4 mps 759 mmHg 54%
    11:00 +33°C° 0 mm 4 mps 759 mmHg 52%
    12:00 +34°C° 0 mm 5 mps 758 mmHg 50%
    13:00 +34°C° 0 mm 5 mps 758 mmHg 48%
    14:00 +34°C° 0 mm 5 mps 758 mmHg 50%
    15:00 +33°C° 0 mm 5 mps 757 mmHg 51%
    16:00 +33°C° 0 mm 5 mps 757 mmHg 53%
    17:00 +32°C° 0 mm 4 mps 757 mmHg 58%
    18:00 +30°C° 0 mm 4 mps 757 mmHg 63%
    19:00 +29°C° 0 mm 4 mps 757 mmHg 69%
    20:00 +28°C° 0 mm 4 mps 758 mmHg 71%
    21:00 +28°C° 0 mm 4 mps 758 mmHg 73%
    22:00 +28°C° 0 mm 4 mps 759 mmHg 75%
    23:00 +27°C° 0 mm 4 mps 758 mmHg 77%

    Tomorrow, 15 December, Friday

    Time Temperature Precipitation Wind Pressure Humidity
    00:00 +27°C° 0 mm 4 mps 758 mmHg 78%
    01:00 +27°C° 0 mm 4 mps 758 mmHg 80%
    02:00 +27°C° 0.1 mm 4 mps 758 mmHg 81%
    03:00 +27°C° 0.1 mm 3 mps 757 mmHg 82%
    04:00 +26°C° 0.1 mm 3 mps 757 mmHg 83%
    05:00 +27°C° 0.1 mm 3 mps 757 mmHg 81%
    06:00 +27°C° 0.1 mm 4 mps 758 mmHg 80%
    07:00 +27°C° 0.1 mm 4 mps 758 mmHg 79%
    08:00 +29°C° 0.2 mm 4 mps 758 mmHg 73%
    09:00 +30°C° 0.2 mm 4 mps 758 mmHg 67%
    10:00 +32°C° 0.2 mm 4 mps 759 mmHg 61%
    11:00 +33°C° 0.1 mm 4 mps 758 mmHg 58%
    12:00 +33°C° 0.1 mm 4 mps 758 mmHg 55%
    13:00 +34°C° 0.1 mm 4 mps 758 mmHg 51%
    14:00 +34°C° 0 mm 4 mps 757 mmHg 53%
    15:00 +33°C° 0 mm 4 mps 757 mmHg 54%
    16:00 +33°C° 0 mm 4 mps 756 mmHg 56%
    17:00 +32°C° 0.1 mm 4 mps 756 mmHg 61%
    18:00 +30°C° 0.1 mm 3 mps 757 mmHg 66%
    19:00 +29°C° 0.1 mm 3 mps 757 mmHg 71%
    20:00 +28°C° 0.1 mm 3 mps 757 mmHg 72%
    21:00 +28°C° 0.1 mm 3 mps 758 mmHg 74%
    22:00 +28°C° 0.1 mm 2 mps 758 mmHg 76%
    23:00 +28°C° 0.1 mm 2 mps 758 mmHg 77%

    Day after tomorrow, 16 December, Saturday

    Time Temperature Precipitation Wind Pressure Humidity
    00:00 +27°C° 0.1 mm 2 mps 758 mmHg 78%
    01:00 +27°C° 0.1 mm 2 mps 757 mmHg 79%
    02:00 +27°C° 0 mm 2 mps 757 mmHg 79%
    03:00 +27°C° 0 mm 2 mps 757 mmHg 80%
    04:00 +27°C° 0 mm 2 mps 756 mmHg 80%
    05:00 +27°C° 0 mm 2 mps 757 mmHg 79%
    06:00 +27°C° 0 mm 2 mps 757 mmHg 78%
    07:00 +28°C° 0 mm 2 mps 757 mmHg 77%
    08:00 +29°C° 0.1 mm 2 mps 758 mmHg 70%
    09:00 +30°C° 0.1 mm 3 mps 758 mmHg 63%
    10:00 +33°C° 0.1 mm 3 mps 759 mmHg 56%
    11:00 +34°C° 0 mm 3 mps 758 mmHg 53%
    12:00 +34°C° 0 mm 4 mps 758 mmHg 51%
    13:00 +35°C° 0 mm 4 mps 757 mmHg 48%
    14:00 +35°C° 0 mm 4 mps 757 mmHg 51%
    15:00 +34°C° 0 mm 4 mps 756 mmHg 53%
    16:00 +34°C° 0 mm 4 mps 756 mmHg 55%
    17:00 +32°C° 0 mm 4 mps 756 mmHg 61%
    18:00 +30°C° 0 mm 4 mps 757 mmHg 67%
    19:00 +29°C° 0 mm 4 mps 757 mmHg 73%
    20:00 +29°C° 0 mm 4 mps 757 mmHg 75%
    21:00 +29°C° 0 mm 4 mps 758 mmHg 77%
    22:00 +28°C° 0 mm 4 mps 758 mmHg 79%
    23:00 +28°C° 0.1 mm 4 mps 758 mmHg 80%

    17 December, Sunday

    Time Temperature Precipitation Wind Pressure Humidity
    00:00 +28°C° 0.1 mm 3 mps 758 mmHg 81%
    01:00 +28°C° 0.1 mm 3 mps 757 mmHg 82%
    02:00 +28°C° 0.2 mm 3 mps 757 mmHg 82%
    03:00 +27°C° 0.2 mm 4 mps 757 mmHg 83%
    04:00 +27°C° 0.2 mm 4 mps 756 mmHg 84%
    05:00 +28°C° 0.3 mm 4 mps 757 mmHg 82%
    06:00 +28°C° 0.3 mm 4 mps 757 mmHg 81%
    07:00 +28°C° 0.3 mm 4 mps 758 mmHg 80%
    08:00 +29°C° 0.7 mm 5 mps 758 mmHg 75%
    09:00 +30°C° 0.7 mm 5 mps 758 mmHg 69%
    10:00 +32°C° 0.7 mm 6 mps 758 mmHg 64%
    11:00 +32°C° 0.8 mm 6 mps 758 mmHg 62%
    12:00 +33°C° 0.8 mm 5 mps 758 mmHg 61%
    13:00 +33°C° 0.8 mm 5 mps 758 mmHg 59%
    14:00 +33°C° 0.3 mm 5 mps 758 mmHg 60%
    15:00 +33°C° 0.3 mm 5 mps 757 mmHg 61%
    16:00 +32°C° 0.3 mm 5 mps 757 mmHg 62%
    17:00 +32°C° 0.1 mm 5 mps 757 mmHg 66%
    18:00 +30°C° 0.1 mm 4 mps 758 mmHg 70%
    19:00 +29°C° 0.1 mm 4 mps 758 mmHg 75%
    20:00 +28°C° 0.4 mm 4 mps 758 mmHg 77%
    21:00 +28°C° 0.4 mm 4 mps 759 mmHg 79%
    22:00 +28°C° 0.4 mm 4 mps 759 mmHg 81%
    23:00 +28°C° 0.8 mm 4 mps 759 mmHg 82%

    18 December, Monday

    Time Temperature Precipitation Wind Pressure Humidity
    00:00 +27°C° 0.8 mm 4 mps 758 mmHg 82%
    01:00 +27°C° 0.8 mm 4 mps 758 mmHg 83%
    02:00 +27°C° 1 mm 4 mps 758 mmHg 83%
    03:00 +27°C° 1 mm 4 mps 758 mmHg 83%
    04:00 +27°C° 1 mm 4 mps 757 mmHg 83%
    05:00 +27°C° 0.5 mm 4 mps 758 mmHg 82%
    06:00 +27°C° 0.5 mm 4 mps 758 mmHg 81%
    07:00 +28°C° 0.5 mm 4 mps 758 mmHg 80%
    08:00 +29°C° 0.3 mm 5 mps 758 mmHg 74%
    09:00 +30°C° 0.3 mm 5 mps 759 mmHg 69%
    10:00 +32°C° 0.3 mm 5 mps 759 mmHg 63%
    11:00 +33°C° 0.1 mm 5 mps 759 mmHg 61%
    12:00 +33°C° 0.1 mm 5 mps 758 mmHg 58%
    13:00 +34°C° 0.1 mm 6 mps 758 mmHg 56%
    14:00 +33°C° 0 mm 6 mps 758 mmHg 57%
    15:00 +33°C° 0 mm 6 mps 757 mmHg 59%
    16:00 +33°C° 0 mm 6 mps 757 mmHg 60%
    17:00 +32°C° 0 mm 5 mps 757 mmHg 65%
    18:00 +30°C° 0 mm 5 mps 758 mmHg 70%
    19:00 +29°C° 0 mm 5 mps 758 mmHg 75%
    20:00 +28°C° 0.1 mm 4 mps 758 mmHg 76%
    21:00 +28°C° 0.1 mm 4 mps 759 mmHg 78%
    22:00 +28°C° 0.1 mm 4 mps 759 mmHg 79%
    23:00 +28°C° 0.1 mm 4 mps 759 mmHg 80%

    19 December, Tuesday

    Time Temperature Precipitation Wind Pressure Humidity
    00:00 +27°C° 0.1 mm 4 mps 759 mmHg 80%
    01:00 +27°C° 0.1 mm 4 mps 758 mmHg 80%
    02:00 +27°C° 0.1 mm 4 mps 758 mmHg 80%
    03:00 +27°C° 0.1 mm 4 mps 758 mmHg 81%
    04:00 +27°C° 0.1 mm 4 mps 758 mmHg 81%
    05:00 +27°C° 0.1 mm 4 mps 758 mmHg 80%
    06:00 +27°C° 0.1 mm 4 mps 758 mmHg 78%
    07:00 +28°C° 0.1 mm 4 mps 759 mmHg 77%
    08:00 +29°C° 0.1 mm 5 mps 759 mmHg 71%
    09:00 +30°C° 0.1 mm 5 mps 759 mmHg 66%
    10:00 +32°C° 0.1 mm 6 mps 759 mmHg 60%
    11:00 +33°C° 0 mm 5 mps 759 mmHg 58%
    12:00 +33°C° 0 mm 5 mps 759 mmHg 55%
    13:00 +34°C° 0 mm 5 mps 758 mmHg 52%
    14:00 +33°C° 0 mm 5 mps 758 mmHg 53%
    15:00 +33°C° 0 mm 5 mps 758 mmHg 54%
    16:00 +33°C° 0 mm 5 mps 757 mmHg 55%
    17:00 +32°C° 0 mm 5 mps 758 mmHg 61%
    18:00 +30°C° 0 mm 4 mps 758 mmHg 66%
    19:00 +29°C° 0 mm 4 mps 758 mmHg 71%
    20:00 +28°C° 0 mm 4 mps 758 mmHg 73%
    21:00 +28°C° 0 mm 4 mps 759 mmHg 75%
    22:00 +28°C° 0 mm 4 mps 759 mmHg 76%
    23:00 +28°C° 0 mm 3 mps 759 mmHg 77%
    Show more